CAPE
289 906 1065 967 928 929 838 710 628 604 661 663 519 350 330 451 542 599 578 327 89 28 11 8 25 133 80 39 38 172 121 839
213 652 1114 1157 1107 1021 933 847 764 717 716 754 595 411 377 493 575 616 566 352 153 96 88 82 49 17 24 25 9 242 377 775
298 420 780 1157 1164 1130 1014 950 938 891 883 877 713 537 498 575 647 689 650 495 303 200 148 87 56 27 24 0 0 197 447 625
252 307 554 908 1201 1158 1111 1069 1117 1093 1065 977 784 536 500 599 700 925 1000 894 652 308 137 70 61 17 0 0 13 301 475 571
180 226 469 632 854 1054 1118 1123 1180 1189 1096 984 788 600 519 586 682 1050 1089 978 736 375 128 66 62 23 0 0 82 300 367 437
244 246 288 531 822 856 1050 961 1131 1221 1185 997 802 511 450 512 550 647 723 673 532 337 98 41 40 19 0 0 3 180 266 342
465 415 369 373 691 769 878 930 981 1160 1199 1032 830 553 332 262 330 443 492 503 360 205 49 15 18 0 0 0 2 113 178 286
535 516 472 515 455 422 615 776 902 1083 1074 1030 903 672 307 225 206 277 298 357 218 121 38 5 12 0 0 0 7 28 58 140
675 575 458 564 560 404 381 541 730 901 844 920 883 668 414 143 205 257 276 258 267 127 38 0 0 0 0 0 0 0 1 9
866 773 604 555 551 476 390 401 483 541 715 814 847 710 474 274 267 353 458 369 272 203 38 0 0 0 0 0 0 0 0 0
487 855 702 656 468 439 340 329 336 457 642 761 817 711 503 308 418 553 612 560 419 297 65 2 0 0 0 0 0 0 0 0
363 885 800 668 498 550 356 326 297 293 429 602 760 748 471 321 421 584 697 724 561 326 217 0 0 0 0 0 0 1 0 0
32 633 868 951 942 1072 733 521 562 575 586 567 596 650 553 413 407 479 702 859 680 189 3 0 0 0 0 0 1 2 1 0
70 532 862 1121 1016 1034 913 776 487 438 362 537 680 813 802 627 656 593 644 519 223 8 2 0 0 0 0 0 1 1 0 3
65 535 894 1152 1037 472 272 326 201 475 443 464 373 591 851 840 646 530 331 180 115 7 0 0 0 0 0 0 0 0 0 1
184 448 847 830 642 878 916 1090 947 554 389 45 7 4 56 185 262 106 66 2 0 0 0 0 0 0 0 0 0 0 0 0
255 325 360 403 529 706 844 866 380 8 13 46 0 0 1 2 3 2 0 0 0 0 0 0 0 0 0 0 0 0 0 0
327 281 159 105 179 256 474 638 241 111 13 3 0 2 2 1 1 1 4 2 0 0 0 0 0 0 0 0 0 0 0 0
401 574 521 362 419 400 369 370 237 260 12 0 0 2 4 3 2 1 1 2 1 1 1 1 0 0 0 0 0 0 0 0
0 19 142 4 7 0 0 0 0 0 0 0 2 1 1 2 1 2 1 0 0 0 0 0 0 0 0 0 0 0 0 0
CIN
-527 -371 -309 -306 -296 -293 -302 -315 -314 -314 -282 -274 -294 -326 -331 -305 -274 -243 -232 -254 -319 -336 -322 -228 -227 -221 -272 -321 -323 -226 -240 -73
-534 -433 -302 -274 -277 -283 -282 -287 -295 -300 -284 -255 -284 -313 -319 -291 -272 -249 -236 -271 -302 -313 -304 -278 -251 -257 -276 -305 -326 -165 -109 -68
-518 -462 -383 -273 -259 -254 -254 -265 -271 -278 -270 -243 -259 -301 -294 -279 -254 -234 -231 -233 -270 -269 -272 -273 -265 -269 -269 0 0 -197 -110 -89
-543 -495 -429 -320 -237 -235 -238 -249 -244 -241 -233 -231 -254 -301 -294 -256 -221 -178 -160 -163 -178 -237 -266 -284 -279 -315 0 0 -227 -185 -125 -81
-527 -512 -439 -363 -307 -261 -243 -236 -221 -216 -226 -229 -252 -278 -286 -260 -226 -145 -134 -150 -165 -223 -286 -315 -278 -303 0 0 -229 -177 -142 -100
-472 -507 -454 -375 -310 -297 -259 -270 -235 -219 -216 -231 -250 -296 -278 -257 -243 -225 -187 -202 -206 -210 -283 -313 -281 -286 0 0 -147 -189 -152 -111
-422 -473 -456 -423 -345 -312 -270 -260 -260 -233 -211 -225 -254 -269 -327 -335 -300 -268 -255 -217 -256 -252 -289 -323 -284 0 0 0 -47 -205 -166 -108
-413 -436 -463 -426 -415 -400 -350 -291 -248 -210 -228 -234 -229 -258 -316 -307 -352 -314 -324 -264 -244 -261 -274 -335 -307 0 0 0 -157 -219 -188 -134
-359 -403 -477 -423 -382 -412 -401 -353 -288 -233 -235 -224 -223 -249 -268 -363 -310 -310 -264 -278 -260 -260 -292 -24 0 0 0 0 0 0 -15 -212
-342 -398 -438 -441 -415 -427 -388 -368 -331 -291 -236 -199 -191 -212 -260 -301 -316 -285 -218 -223 -216 -216 -262 0 0 0 0 0 0 0 0 0
-310 -382 -397 -429 -415 -391 -401 -383 -359 -326 -259 -218 -186 -205 -247 -296 -267 -219 -171 -160 -191 -158 -224 -122 0 0 0 0 0 0 0 0
-308 -365 -404 -409 -387 -332 -374 -369 -366 -356 -290 -234 -160 -159 -211 -255 -227 -175 -125 -93 -121 -144 -127 0 0 0 0 0 0 0 0 0
-410 -349 -399 -357 -321 -260 -268 -319 -291 -254 -237 -227 -201 -144 -132 -172 -198 -191 -137 -85 -90 -165 -30 0 0 0 0 0 0 0 0 0
-455 -343 -354 -319 -298 -262 -231 -260 -329 -348 -350 -244 -167 -109 -84 -94 -100 -120 -113 -118 -175 -157 -257 0 0 0 0 0 0 0 0 0
-430 -332 -313 -265 -259 -385 -456 -398 -512 -298 -304 -291 -325 -186 -86 -78 -92 -115 -159 -191 -196 -138 -24 0 0 0 0 0 0 0 0 0
-443 -378 -277 -279 -330 -223 -186 -151 -156 -287 -345 -117 -463 -48 -438 -329 -242 -290 -272 -66 0 0 0 0 0 0 0 0 0 0 0 0
-426 -424 -400 -387 -314 -229 -173 -149 -316 -631 -574 -476 0 0 0 0 0 0 0 0 0 0 0 0 0 0 0 0 0 0 0 0
-382 -381 -428 -467 -406 -339 -229 -156 -306 -380 -380 -469 0 0 0 0 0 0 0 0 0 0 0 0 0 0 0 0 0 0 0 0
-327 -274 -273 -296 -251 -226 -227 -216 -247 -227 -225 0 0 0 0 0 0 0 0 0 0 0 0 0 0 0 0 0 0 0 0 0
0 -146 -356 -487 -448 0 0 0 0 0 0 0 0 0 0 0 0 0 0 0 0 0 0 0 0 0 0 0 0 0 0 0
Wind_Speed
10 8 10 13 13 11 11 11 13 12 12 12 12 13 12 13 14 13 13 12 13 13 13 13 13 13 14 15 16 17 15 14
8 7 8 10 11 12 11 10 11 11 11 12 11 11 11 11 11 11 11 10 11 11 11 11 11 12 13 15 16 17 14 13
7 7 6 7 10 10 11 10 10 10 10 10 10 9 10 10 10 9 8 9 9 9 9 10 11 13 14 15 16 14 15 13
5 5 5 5 8 9 9 8 8 8 7 8 8 8 8 7 7 8 7 6 6 7 9 10 12 14 14 14 14 13 14 14
4 4 3 4 6 10 9 9 7 7 7 7 6 6 6 4 4 5 5 4 5 8 9 9 11 13 14 14 13 13 13 13
2 4 4 4 4 8 10 12 10 9 8 8 7 6 4 3 3 3 3 2 2 6 8 11 13 14 14 16 11 11 11 12
3 3 4 6 5 6 8 12 14 11 9 9 8 7 6 4 5 3 3 1 1 2 5 8 11 14 16 11 9 10 11 11
3 4 5 6 7 7 7 8 11 11 10 10 9 8 7 6 5 5 5 3 3 3 4 5 8 11 12 10 10 11 11 12
7 7 6 6 9 8 6 6 7 9 9 10 10 10 9 8 8 6 7 6 5 4 4 6 7 8 9 8 9 10 10 12
7 6 7 7 8 8 6 6 6 7 8 8 11 11 11 10 10 9 8 8 8 7 7 10 9 7 7 9 8 9 11 12
8 7 8 7 6 7 7 7 7 6 7 8 11 13 13 13 11 10 9 9 8 9 9 9 8 8 7 10 10 9 9 11
11 8 6 5 6 6 5 6 6 6 6 7 9 11 12 13 12 11 10 11 11 12 11 10 11 9 13 12 11 12 11 11
8 7 6 5 5 5 6 9 7 7 6 6 7 9 10 11 11 12 12 12 13 13 13 12 14 11 13 17 17 15 16 13
5 6 5 6 6 5 4 4 4 5 6 6 6 7 9 11 11 12 12 13 13 13 13 15 16 11 15 16 18 19 14 17
2 1 2 3 2 3 7 7 10 6 7 7 8 8 8 10 12 12 13 14 15 15 16 15 17 16 12 16 19 20 17 18
11 9 6 5 4 4 6 6 8 10 10 12 13 16 15 14 14 15 14 15 15 16 16 17 17 19 19 23 20 16 19 20
11 11 10 8 7 8 8 10 12 14 13 12 15 17 19 20 17 16 16 16 16 16 17 18 19 19 21 21 18 22 20 21
11 10 11 11 11 12 13 13 15 16 16 16 17 17 19 18 17 18 19 19 18 17 18 20 19 20 19 20 23 23 20 21
11 11 13 13 13 13 14 16 17 18 18 18 18 18 19 21 18 18 18 22 19 23 21 19 16 18 20 17 19 18 17 16
12 13 15 17 17 17 19 20 20 20 19 19 19 16 20 19 19 18 18 18 17 19 19 18 17 15 14 15 16 17 19 17
Wind_Direction
87 114 140 150 152 151 147 142 137 129 124 119 113 109 104 102 100 95 88 78 76 74 72 64 54 32 1 340 328 325 349 6
73 99 134 153 158 160 158 153 145 139 134 131 125 118 114 110 105 96 87 79 73 71 66 55 46 35 12 351 337 336 349 357
61 92 124 158 166 169 168 166 158 150 142 138 131 123 124 118 115 106 91 85 72 62 50 32 19 0 354 352 346 351 345 347
98 99 113 156 174 179 182 183 177 167 157 148 142 134 131 122 115 115 99 70 46 37 26 17 5 354 352 353 352 355 351 346
122 112 114 149 173 183 196 201 205 193 179 170 163 149 140 126 114 113 109 88 24 356 357 4 0 354 351 349 353 357 357 354
110 121 127 158 162 176 192 194 200 203 198 190 182 176 165 160 148 135 133 106 30 353 345 340 336 335 341 338 352 357 356 353
180 148 150 170 175 177 184 191 193 202 206 202 205 198 198 198 186 180 174 182 293 336 343 340 334 330 329 343 353 351 351 351
220 200 174 177 193 189 188 191 196 202 212 213 213 236 235 219 234 229 222 241 286 295 311 326 331 331 333 339 340 338 337 335
226 212 198 191 195 205 219 201 206 207 217 221 216 216 222 236 222 244 268 265 240 265 298 320 322 328 331 334 338 337 339 338
237 237 212 200 199 214 232 227 217 218 228 232 220 222 220 224 225 234 252 270 276 271 289 305 305 307 317 316 324 330 329 326
244 240 218 216 241 235 220 215 204 218 225 225 218 220 222 224 235 246 253 258 256 267 286 292 295 293 317 313 310 312 318 319
268 261 237 242 262 255 250 212 206 204 219 234 234 229 230 233 246 257 259 263 271 276 276 280 292 292 313 313 311 307 305 305
234 220 223 228 242 218 213 198 199 199 219 255 251 238 237 236 250 253 255 259 266 268 280 273 293 298 311 321 319 310 302 297
192 188 191 189 186 200 264 227 277 278 287 285 266 251 242 240 245 253 257 270 274 273 269 282 288 276 298 310 302 315 321 297
301 265 196 187 213 242 304 309 309 298 292 293 297 285 262 257 262 267 264 267 268 268 268 265 274 280 273 305 306 305 309 307
302 310 312 304 282 258 246 268 286 301 304 309 308 307 303 294 282 283 276 277 276 277 273 271 274 272 281 302 294 297 299 298
313 318 317 320 311 297 285 291 301 310 310 307 309 310 309 306 301 293 282 284 284 280 277 277 279 280 280 292 291 302 299 299
330 335 331 329 321 315 306 298 301 305 306 303 308 311 311 310 305 304 294 290 282 283 283 279 268 286 283 283 286 291 288 291
338 338 332 333 326 317 311 306 302 301 302 302 306 306 309 305 306 304 299 297 297 294 291 281 284 281 281 280 287 289 286 293
331 332 331 333 329 325 319 315 311 309 307 307 307 298 304 306 304 304 305 300 300 298 300 292 295 291 288 292 290 286 285 283